• Join FlightAware (Why Join?)
  • Login
  • US Flag 
05:57AM EST


 

Airport Tracker/Info


-or-


 

Live Flight TrackerFlight Track Log ✈ TAM3714 ✈ 16-May-2014 ✈ SBSP / CGH - SBBR / BSB

Flight Track Log - Related Links

Times and Time Zones

All times are in EDT time to prevent confusion due to time zone crossing. See the TAM3714 flight status page for this flight to view local times or setup timezone preferences in your user account.

Time Position Orientation Groundspeed Altitude Reporting Facility
EDT Latitude Longitude Course Direction KTS MPH feet Rate Location/Type
09:08PM -23.6337 -46.6516 147° Southeast 148 170 2,700  Level FlightAware ADS-B (SBSP / CGH)
09:08PM -23.6424 -46.6458 148° Southeast 152 175 3,400 2,200 Climbing FlightAware ADS-B (SBSP / CGH)
09:08PM -23.6523 -46.6392 147° Southeast 171 197 3,800 1,400 Climbing FlightAware ADS-B (SBSP / CGH)
09:08PM -23.6634 -46.6315 146° Southeast 190 219 4,100 1,161 Climbing FlightAware ADS-B (SBSP / CGH)
09:09PM -23.6749 -46.6234 146° Southeast 216 249 4,400 1,355 Climbing FlightAware ADS-B (SBSP / CGH)
09:09PM -23.6896 -46.6140 156° South 239 275 4,800 1,895 Climbing FlightAware ADS-B (SBSP / CGH)
09:09PM -23.6939 -46.6125 163° South 245 282 5,000 1,800 Climbing FlightAware ADS-B (SBSP / CGH)
09:09PM -23.7003 -46.6115 173° South 252 290 5,100 1,800 Climbing FlightAware ADS-B (SBSP / CGH)
09:09PM -23.7058 -46.6117 184° South 258 297 5,300 3,333 Climbing FlightAware ADS-B (SBSP / CGH)
09:09PM -23.7124 -46.6131 194° South 264 304 5,600 3,000 Climbing FlightAware ADS-B (SBSP / CGH)
09:09PM -23.7187 -46.6158 205° Southwest 268 308 5,800 3,000 Climbing FlightAware ADS-B (SBSP / CGH)
09:09PM -23.7232 -46.6187 211° Southwest 271 312 6,100 2,400 Climbing FlightAware ADS-B (SBSP / CGH)
09:09PM -23.7280 -46.6227 220° Southwest 275 316 6,200 2,182 Climbing FlightAware ADS-B (SBSP / CGH)
09:10PM -23.7328 -46.6282 228° Southwest 276 318 6,500 2,182 Climbing FlightAware ADS-B (SBSP / CGH)
09:10PM -23.7368 -46.6345 238° Southwest 279 321 6,600 2,000 Climbing FlightAware ADS-B (SBSP / CGH)
09:10PM -23.7394 -46.6403 245° Southwest 280 322 6,800 1,800 Climbing FlightAware ADS-B (SBSP / CGH)
09:10PM -23.7414 -46.6461 251° West 278 320 6,900 600 Climbing FlightAware ADS-B (SBSP / CGH)
09:10PM -23.7479 -46.6669 251° West 277 319 7,000 176 Climbing FlightAware ADS-B (SBSP / CGH)
09:10PM -23.7577 -46.6929 247° West 278 320 7,000  Level FlightAware ADS-B (SBSP / CGH)
09:11PM -23.7683 -46.7179 246° West 280 322 7,000  Level FlightAware ADS-B (SBSP / CGH)
09:11PM -23.7788 -46.7437 247° West 282 325 7,000  Level FlightAware ADS-B (SBSP / CGH)
09:11PM -23.7889 -46.7699 248° West 283 326 7,000  Level FlightAware ADS-B (SBSP / CGH)
09:12PM -23.7994 -46.7977 249° West 284 327 7,000  Level FlightAware ADS-B (SBSP / CGH)
09:12PM -23.8090 -46.8240 249° West 282 325 7,000  Level FlightAware ADS-B (SBSP / CGH)
09:12PM -23.8154 -46.8428 253° West 283 326 7,000  Level FlightAware ADS-B (SBSP / CGH)
09:12PM -23.8168 -46.8508 260° West 284 327 7,000  Level FlightAware ADS-B (SBSP / CGH)
09:12PM -23.8168 -46.8577 270° West 284 327 7,000  Level FlightAware ADS-B (SBSP / CGH)
09:13PM -23.8161 -46.8632 278° West 284 327 7,000  Level FlightAware ADS-B (SBSP / CGH)
09:13PM -23.8139 -46.8712 289° West 284 327 7,000 600 Level FlightAware ADS-B (SBSP / CGH)
09:13PM -23.8106 -46.8782 299° West 283 326 7,100 1,800 Climbing FlightAware ADS-B (SBSP / CGH)
09:13PM -23.8069 -46.8840 305° West 285 328 7,300 2,571 Climbing FlightAware ADS-B (SBSP / CGH)
09:13PM -23.7956 -46.9015 305° West 288 331 8,000 3,097 Climbing FlightAware ADS-B (SBSP / CGH)
09:13PM -23.7838 -46.9205 304° West 290 334 8,900 3,840 Climbing FlightAware ADS-B (SBSP / CGH)
09:13PM -23.7759 -46.9331 305° West 290 334 9,600 3,257 Climbing FlightAware ADS-B (SDAM)
09:14PM -23.7484 -46.9548 335° Northwest 307 353 10,800 2,291 Climbing FlightAware ADS-B (SDAM)
09:14PM -23.7060 -46.9748 338° Northwest 338 389 11,700 2,400 Climbing FlightAware ADS-B (SDAM)
09:15PM -23.6615 -46.9947 338° Northwest 344 396 13,200 3,000 Climbing FlightAware ADS-B (SDAM)
09:15PM -23.6182 -47.0145 337° Northwest 347 399 14,700 2,656 Climbing FlightAware ADS-B (SDAM)
09:16PM -23.5732 -47.0355 337° Northwest 358 412 15,900 2,372 Climbing FlightAware ADS-B (SDAM)
09:16PM -23.5533 -47.0449 304° West 291 335 16,400 2,211 Climbing FlightAware ADS-B (SBSP / CGH)
09:16PM -23.5427 -47.0498 337° Northwest 367 422 16,600 1,333 Climbing FlightAware ADS-B (SDAM)
09:16PM -23.5399 -47.0512 304° West 291 335 16,600 600 Level FlightAware ADS-B (SBSP / CGH)
09:16PM -23.5257 -47.0578 337° Northwest 377 434 16,700 1,263 Climbing FlightAware ADS-B (SDAM)
09:17PM -23.4753 -47.0813 337° Northwest 396 456 17,400 1,900 Climbing FlightAware ADS-B (SDAM)
09:17PM -23.4256 -47.1042 337° Northwest 397 457 18,600 1,869 Climbing FlightAware ADS-B (SDAM)
09:18PM -23.3728 -47.1287 337° Northwest 412 474 19,300 1,200 Climbing FlightAware ADS-B (SDAM)
09:18PM -23.3193 -47.1536 337° Northwest 428 493 19,800 1,525 Climbing FlightAware ADS-B (SDAM)
09:19PM -23.2642 -47.1793 337° Northwest 432 497 20,800 2,100 Climbing FlightAware ADS-B (SDAM)
09:19PM -23.2096 -47.2044 337° Northwest 429 494 21,900 1,770 Climbing FlightAware ADS-B (SDAM)
09:20PM -23.1535 -47.2302 337° Northwest 438 504 22,600 1,400 Climbing FlightAware ADS-B (SDAM)
09:20PM -23.0978 -47.2560 337° Northwest 441 507 23,300 1,525 Climbing FlightAware ADS-B (SDAM)
09:21PM -23.0381 -47.2801 346° North 451 519 24,100 1,180 Climbing FlightAware ADS-B (SDAM)
09:21PM -22.9759 -47.2917 351° North 464 534 24,500 1,082 Climbing FlightAware ADS-B (SDAM)
09:22PM -22.9147 -47.3023 351° North 466 536 25,200 2,644 Climbing FlightAware ADS-B (SDAM)
09:22PM -22.8489 -47.3141 351° North 440 506 27,100 3,400 Climbing FlightAware ADS-B (SDAM)
09:23PM -22.7889 -47.3251 351° North 423 487 28,600 3,049 Climbing FlightAware ADS-B (SDAM)
09:23PM -22.7338 -47.3350 351° North 403 464 30,200 2,136 Climbing FlightAware ADS-B (SDAM)
09:24PM -22.6784 -47.3451 351° North 414 476 30,700 1,322 Climbing FlightAware ADS-B (SDAM)
09:24PM -22.6220 -47.3553 351° North 414 476 31,500 1,400 Climbing FlightAware ADS-B (SDAM)
09:25PM -22.5634 -47.3659 351° North 418 481 32,100 2,000 Climbing FlightAware ADS-B (SDAM)
09:25PM -22.5074 -47.3757 351° North 404 465 33,500 2,700 Climbing FlightAware ADS-B (SDAM)
09:26PM -22.4535 -47.3851 351° North 387 445 34,800 1,521 Climbing FlightAware ADS-B (SDAM)
09:27PM -22.3829 -47.3980 351° North 394 453 35,300 600 Climbing FlightAware ADS-B (SDAM)
09:27PM -22.3274 -47.4081 351° North 406 467 35,500 407 Climbing FlightAware ADS-B (SDAM)
09:28PM -22.2697 -47.4184 351° North 417 480 35,700 500 Climbing FlightAware ADS-B (SDAM)
09:28PM -22.2118 -47.4288 351° North 424 488 36,000 885 Climbing FlightAware ADS-B (SDAM)
09:29PM -22.1565 -47.4386 351° North 425 489 36,600 1,000 Climbing FlightAware ADS-B (SDAM)
09:29PM -22.0957 -47.4494 351° North 427 491 37,000 814 Climbing FlightAware ADS-B (SDAM)
09:30PM -22.0361 -47.4601 351° North 431 496 37,400 900 Climbing FlightAware ADS-B (SDAM)
09:30PM -21.9772 -47.4705 351° North 429 494 37,900 514 Climbing FlightAware ADS-B (SDAM)
09:31PM -21.8991 -47.4844 351° North 440 506 38,000 85 Climbing FlightAware ADS-B (SDAM)
09:31PM -21.8357 -47.4958 351° North 445 512 38,000  Level FlightAware ADS-B (SDAM)
09:32PM -21.7753 -47.5066 351° North 444 511 38,000  Level FlightAware ADS-B (SDAM)
09:32PM -21.7166 -47.5170 351° North 444 511 38,000  Level FlightAware ADS-B (SDAM)
09:33PM -21.6531 -47.5283 351° North 444 511 38,000  Level FlightAware ADS-B (SDAM)
09:33PM -21.5918 -47.5391 351° North 445 512 38,000  Level FlightAware ADS-B (SDAM)
09:34PM -21.5316 -47.5497 351° North 445 512 38,000  Level FlightAware ADS-B (SDAM)
09:34PM -21.4707 -47.5605 351° North 444 511 38,000  Level FlightAware ADS-B (SDAM)
09:35PM -21.4096 -47.5713 351° North 444 511 38,000  Level FlightAware ADS-B (SDAM)
09:35PM -21.3477 -47.5822 351° North 445 512 38,000  Level FlightAware ADS-B (SDAM)
09:36PM -21.2876 -47.5929 351° North 445 512 38,000  Level FlightAware ADS-B (SDAM)
09:36PM -21.2280 -47.6035 351° North 446 513 38,000  Level FlightAware ADS-B (SDAM)
09:37PM -21.1646 -47.6146 351° North 447 514 38,000  Level FlightAware ADS-B (SDAM)
09:37PM -21.1028 -47.6255 351° North 447 514 38,000  Level FlightAware ADS-B (SDAM)
09:38PM -21.0560 -47.6338 351° North 447 514 38,000  Level FlightAware ADS-B (SDAM)
09:38PM -20.9816 -47.6469 351° North 448 516 38,000  Level FlightAware ADS-B (SDAM)
09:39PM -20.9192 -47.6577 351° North 449 517 38,000  Level FlightAware ADS-B (SDAM)
09:39PM -20.8573 -47.6687 351° North 449 517 38,000  Level FlightAware ADS-B (SDAM)
09:40PM -20.7942 -47.6796 351° North 448 516 38,000  Level FlightAware ADS-B (SDAM)
09:40PM -20.7348 -47.6900 351° North 447 514 38,000  Level FlightAware ADS-B (SDAM)
09:41PM -20.6731 -47.7009 351° North 447 514 38,000  Level FlightAware ADS-B (SDAM)
09:41PM -20.6117 -47.7117 351° North 447 514 38,000  Level FlightAware ADS-B (SDAM)
09:42PM -20.5487 -47.7226 351° North 446 513 38,000  Level FlightAware ADS-B (SDAM)
09:42PM -20.4891 -47.7330 351° North 445 512 38,000  Level FlightAware ADS-B (SDAM)
09:43PM -20.4294 -47.7434 351° North 444 511 38,000  Level FlightAware ADS-B (SDAM)
09:43PM -20.3678 -47.7541 351° North 444 511 38,000  Level FlightAware ADS-B (SDAM)
09:44PM -20.3040 -47.7652 351° North 444 511 38,000  Level FlightAware ADS-B (SDAM)
09:44PM -20.2451 -47.7754 351° North 446 513 38,000  Level FlightAware ADS-B (SDAM)
09:45PM -20.1315 -47.7952 351° North 447 514 38,000  Level FlightAware ADS-B (SDAM)
09:46PM -20.0703 -47.8059 351° North 448 516 38,000  Level FlightAware ADS-B (SDAM)
09:46PM -20.0093 -47.8167 351° North 449 517 38,000  Level FlightAware ADS-B (SDAM)
09:47PM -19.9483 -47.8271 351° North 451 519 38,000  Level FlightAware ADS-B (SDAM)
09:47PM -19.8841 -47.8382 351° North 451 519 38,000  Level FlightAware ADS-B (SDAM)
09:48PM -19.8225 -47.8489 351° North 453 521 38,000  Level FlightAware ADS-B (SDAM)
09:48PM -19.7607 -47.8597 351° North 454 522 38,000  Level FlightAware ADS-B (SDAM)
09:49PM -19.6988 -47.8703 351° North 453 521 38,000  Level FlightAware ADS-B (SDAM)
09:49PM -19.6367 -47.8811 351° North 453 521 38,000  Level FlightAware ADS-B (SDAM)
09:50PM -19.5733 -47.8920 351° North 453 521 38,000  Level FlightAware ADS-B (SDAM)
09:50PM -19.5113 -47.9027 351° North 454 522 38,000  Level FlightAware ADS-B (SDAM)
09:51PM -19.4495 -47.9133 351° North 453 521 38,000  Level FlightAware ADS-B (SDAM)
09:51PM -19.3864 -47.9242 351° North 454 522 38,000  Level FlightAware ADS-B (SDAM)
09:52PM -19.3255 -47.9347 351° North 453 521 38,000  Level FlightAware ADS-B (SDAM)
09:52PM -19.2635 -47.9454 351° North 453 521 38,000  Level FlightAware ADS-B (SDAM)
09:53PM -19.2123 -47.9542 351° North 454 522 38,000 -1,065 Level FlightAware ADS-B (SDAM)
10:18PM -16.1279 -48.1970 21° North 312 359 9,900 -1,086 Descending FlightAware ADS-B
10:19PM -16.1062 -48.1883 21° North 302 348 9,500 -1,273 Descending FlightAware ADS-B
10:19PM -16.0857 -48.1803 21° North 296 341 9,200 -1,043 Descending FlightAware ADS-B
10:20PM -16.0484 -48.1656 21° North 282 325 8,700 -1,200 Descending FlightAware ADS-B
10:20PM -16.0319 -48.1592 21° North 281 323 8,300 -1,800 Descending FlightAware ADS-B
10:20PM -16.0115 -48.1511 21° North 284 327 7,800 -2,000 Descending FlightAware ADS-B
10:20PM -15.9929 -48.1437 21° North 285 328 7,300 -1,800 Descending FlightAware ADS-B
10:21PM -15.9745 -48.1375 16° North 286 329 6,900 -1,400 Descending FlightAware ADS-B
10:21PM -15.9544 -48.1317 16° North 283 326 6,600 -1,200 Descending FlightAware ADS-B
10:21PM -15.9387 -48.1270 17° North 280 322 6,300 -800 Descending FlightAware ADS-B
10:21PM -15.9182 -48.1207 17° North 267 307 6,200 -200 Descending FlightAware ADS-B
10:22PM -15.9030 -48.1130 42° Northeast 244 281 6,200 -200 Level FlightAware ADS-B
10:22PM -15.8940 -48.0981 67° East 225 259 6,100 -600 Descending FlightAware ADS-B
10:22PM -15.8909 -48.0844 82° East 212 244 5,900 -800 Descending FlightAware ADS-B
10:22PM -15.8893 -48.0710 84° East 197 227 5,700 -1,000 Descending FlightAware ADS-B
10:23PM -15.8880 -48.0550 86° East 191 220 5,400 -1,200 Descending FlightAware ADS-B
10:23PM -15.8872 -48.0410 87° East 181 208 5,100 -1,000 Descending FlightAware ADS-B
10:23PM -15.8864 -48.0292 86° East 166 191 4,900 -600 Descending FlightAware ADS-B
10:23PM -15.8856 -48.0171 86° East 153 176 4,800 -600 Descending FlightAware ADS-B
10:24PM -15.8850 -48.0069 86° East 147 169 4,600 -800 Descending FlightAware ADS-B
10:24PM -15.8843 -47.9965 86° East 145 167 4,400 -800 Descending FlightAware ADS-B
10:24PM -15.8837 -47.9863 86° East 146 168 4,200 -818 Descending FlightAware ADS-B
10:25PM -15.8823 -47.9655 86° East 147 169 3,800 -724 Descending FlightAware ADS-B
10:25PM -15.8810 -47.9446 86° East 149 171 3,500 -621 Descending FlightAware ADS-B